Location: Unspecified
(0.0000°N, 0.0000°E)
Time: 13:12:55
(UTC+00:00)

Vanguard 1 Rocket - All Passes

Search period start: 24 April 2017 00:00
Search period end: 04 May 2017 00:00
Orbit: 650 x 4227 km, 34.3° (Epoch: 22 April)

Date Brightness Start Highest point End Pass type
(mag) Time Alt. Az. Time Alt. Az. Time Alt. Az.
24 Apr - 01:45:17 10° WSW 01:57:35 72° NW 02:03:53 10° NE night (unlit)
24 Apr - 11:41:07 10° NNW 11:50:04 43° NE 12:06:44 10° ESE daylight
24 Apr - 14:05:27 10° WNW 14:18:48 68° SW 14:43:08 10° SE daylight
24 Apr - 16:36:28 10° W 16:53:59 32° SSW 17:16:07 10° SE daylight
24 Apr - 19:18:00 10° SW 19:35:33 21° S 19:50:36 10° SE visible
24 Apr - 21:57:13 10° SW 22:14:36 28° SSE 22:25:29 10° ESE visible
25 Apr - 00:30:17 10° SW 00:45:53 68° SSE 00:53:33 10° ENE night (unlit)
25 Apr - 03:04:40 10° W 03:11:24 22° NW 03:15:58 10° N visible
25 Apr - 10:32:13 10° N 10:38:28 22° NE 10:48:04 10° E daylight
25 Apr - 12:54:17 10° NW 13:05:13 86° NE 13:27:05 10° SE daylight
25 Apr - 15:21:56 10° W 15:37:25 42° SSW 16:00:58 10° SE daylight
25 Apr - 17:58:58 10° WSW 18:16:45 23° S 18:34:53 10° SE visible
25 Apr - 20:40:31 10° SW 20:58:31 24° S 21:11:22 10° ESE visible
25 Apr - 23:15:06 10° SW 23:33:00 47° SSE 23:42:23 10° E visible
26 Apr - 01:48:36 10° WSW 02:00:37 51° NW 02:06:59 10° NNE visible
26 Apr - 11:44:01 10° NW 11:52:52 56° NE 12:10:21 10° ESE daylight
26 Apr - 14:09:09 10° WNW 14:22:11 55° SSW 14:45:31 10° SE daylight
26 Apr - 16:41:38 10° WSW 16:58:27 28° SSW 17:19:08 10° SE daylight
26 Apr - 19:22:45 10° SW 19:40:49 22° S 19:55:51 10° SE visible
26 Apr - 21:59:33 10° SW 22:18:48 35° SSE 22:30:11 10° E visible
27 Apr - 00:32:58 10° SW 00:49:11 90° SE 00:57:01 10° NE night (unlit)
27 Apr - 03:09:47 10° WNW 03:14:26 15° NW 03:18:00 10° N visible
27 Apr - 10:34:39 10° NNW 10:41:24 30° NE 10:52:49 10° E daylight
27 Apr - 12:57:39 10° WNW 13:08:20 77° SW 13:29:44 10° SE daylight
27 Apr - 15:26:28 10° W 15:41:26 35° SSW 16:03:28 10° SE daylight
27 Apr - 18:04:30 10° SW 18:22:00 22° S 18:39:19 10° SE visible
27 Apr - 20:43:29 10° SW 21:03:10 28° SSE 21:16:35 10° ESE visible
27 Apr - 23:17:25 10° SW 23:36:37 61° SSE 23:46:14 10° ENE visible
28 Apr - 01:52:20 10° WSW 02:03:31 36° NW 02:09:52 10° NNE visible
28 Apr - 09:27:33 10° NNE 09:30:10 12° NE 09:33:14 10° ENE daylight
28 Apr - 11:47:05 10° NW 11:55:47 72° NE 12:13:34 10° ESE daylight
28 Apr - 14:13:10 10° W 14:25:51 45° SSW 14:47:50 10° SE daylight
28 Apr - 16:47:04 10° WSW 17:03:17 24° S 17:22:36 10° SE daylight
28 Apr - 19:26:47 10° SW 19:45:55 24° S 20:01:19 10° ESE visible
28 Apr - 22:01:49 10° SW 22:22:45 44° SSE 22:34:30 10° E visible
29 Apr - 00:35:56 10° WSW 00:52:16 69° NW 01:00:16 10° NE night (unlit)
29 Apr - 10:37:22 10° NNW 10:44:17 40° NE 10:56:57 10° ESE daylight
29 Apr - 13:01:15 10° WNW 13:11:42 61° SSW 13:32:11 10° SE daylight
29 Apr - 15:31:22 10° WSW 15:45:46 29° SSW 16:06:10 10° SE daylight
29 Apr - 18:09:35 10° SW 18:27:20 22° S 18:44:24 10° SE visible
29 Apr - 20:46:06 10° SW 21:07:30 34° SSE 21:21:28 10° E visible
29 Apr - 23:19:54 10° SW 23:39:59 78° SE 23:49:50 10° ENE visible
30 Apr - 01:56:35 10° W 02:06:26 26° NW 02:12:30 10° N visible
30 Apr - 09:28:52 10° N 09:33:17 18° NE 09:39:25 10° E daylight
30 Apr - 11:50:21 10° NW 11:58:51 88° SW 12:16:27 10° SE daylight
30 Apr - 14:17:30 10° W 14:29:48 36° SSW 14:50:09 10° SE daylight
30 Apr - 16:52:34 10° SW 17:08:25 22° S 17:26:41 10° SE daylight
30 Apr - 19:30:11 10° SW 19:50:44 28° SSE 20:06:42 10° ESE visible
30 Apr - 22:04:07 10° SW 22:26:26 55° SSE 22:38:30 10° ENE visible
01 May - 00:39:13 10° WSW 00:55:10 52° NW 01:03:19 10° NNE night (unlit)
01 May - 10:40:16 10° NW 10:47:11 55° NE 11:00:35 10° ESE daylight
01 May - 13:05:07 10° W 13:15:18 48° SSW 13:34:30 10° SE daylight
01 May - 15:36:36 10° WSW 15:50:26 24° SSW 16:09:12 10° SE daylight
01 May - 18:14:02 10° SW 18:32:35 23° S 18:49:55 10° SE visible
01 May - 20:48:33 10° SW 21:11:32 42° SSE 21:25:59 10° E visible
01 May - 23:22:35 10° SW 23:43:07 85° NW 23:53:12 10° NE visible
02 May - 02:01:31 10° W 02:09:24 19° NW 02:14:49 10° N visible
02 May - 09:31:08 10° N 09:36:16 26° NE 09:44:16 10° E daylight
02 May - 11:53:49 10° WNW 12:02:09 68° SSW 12:19:06 10° SE daylight
02 May - 14:22:12 10° WSW 14:34:00 29° SSW 14:52:34 10° SE daylight
02 May - 16:57:49 10° SW 17:13:43 21° S 17:31:29 10° SE daylight
02 May - 19:33:08 10° SW 19:55:13 32° SSE 20:11:50 10° E visible
02 May - 22:06:30 10° SW 22:29:51 69° SE 22:42:13 10° ENE visible
03 May - 00:42:56 10° WSW 00:58:00 40° NW 01:06:12 10° NNE night (unlit)
03 May - 10:43:25 10° NW 10:50:12 76° NE 11:03:49 10° ESE daylight
03 May - 13:09:18 10° W 13:19:09 37° SSW 13:36:44 10° SE daylight
03 May - 15:42:02 10° SW 15:55:23 22° S 16:12:48 10° SE daylight
03 May - 18:17:50 10° SW 18:37:34 26° SSE 18:55:31 10° ESE visible
03 May - 20:50:56 10° SW 21:15:16 51° SSE 21:30:09 10° ENE visible
03 May - 23:25:33 10° WSW 23:46:03 68° NW 23:56:23 10° NE visible
